CAPE
0 0 0 0 0 0 0 0 0 0 0 0 0 0 0 0 0 0 0 0 0 0 0 0 0 0 0 0 0 0 0 0 0 0 0 0 0 0 0 0 0 0 0 0
0 0 0 0 0 0 0 0 0 0 0 0 0 0 0 0 0 0 0 0 0 0 0 0 0 0 0 0 0 0 0 0 0 0 0 0 0 0 0 0 0 0 0 0
0 0 0 0 0 0 0 0 0 0 0 0 0 0 0 0 0 0 0 0 0 0 0 0 0 0 0 0 0 0 0 0 0 0 0 0 0 0 0 0 0 0 0 0
0 0 0 0 0 0 0 0 0 0 0 0 0 0 0 0 0 0 0 0 0 0 0 0 0 0 0 0 0 0 0 0 0 0 0 0 0 0 0 0 0 0 0 0
0 0 0 0 0 0 0 0 0 0 0 0 0 0 0 0 0 0 0 0 0 0 0 0 0 0 0 0 0 0 0 0 0 0 0 0 0 0 0 0 0 0 0 0
0 0 0 0 0 0 0 0 0 0 0 0 0 0 0 0 0 0 0 0 0 0 0 0 0 0 0 0 0 0 0 0 0 0 0 0 0 0 0 0 0 0 0 0
0 0 0 0 0 0 0 0 0 0 0 0 0 0 0 0 0 0 0 0 0 0 0 0 0 0 0 0 0 0 0 0 0 0 0 0 0 0 0 0 0 0 0 0
0 0 0 0 0 0 0 0 0 0 0 0 0 0 0 0 0 0 0 0 0 0 0 0 0 0 0 0 0 0 0 0 0 0 0 0 0 0 0 0 0 0 0 0
0 0 0 0 0 0 0 0 0 0 0 0 0 0 0 0 0 0 0 0 0 0 0 0 0 0 0 0 0 0 0 0 0 0 0 0 0 0 0 0 0 0 0 0
0 0 0 0 0 0 0 0 0 0 0 0 0 0 0 0 0 0 0 0 0 0 0 0 0 0 0 0 0 0 0 0 0 0 0 0 0 0 0 0 0 0 0 0
0 0 0 0 0 0 0 0 0 0 0 0 0 0 0 0 0 0 0 0 0 0 0 0 0 0 0 0 0 0 0 0 0 0 0 0 0 0 0 0 0 0 0 0
0 0 0 0 0 0 0 0 0 0 0 0 0 0 0 0 0 0 0 0 0 0 0 0 0 0 0 0 0 0 0 0 0 0 0 0 0 0 0 0 0 0 0 0
0 0 1 0 0 0 0 0 0 0 0 0 0 0 0 0 0 0 0 0 0 0 0 0 0 0 0 0 0 0 0 0 0 0 0 0 0 0 0 0 0 0 0 0
0 0 0 0 0 0 0 0 0 0 0 0 0 0 0 0 0 0 0 0 0 0 0 0 0 0 0 0 0 0 0 0 0 0 0 0 0 0 0 0 0 0 0 0
0 0 0 0 0 0 0 0 0 0 0 0 0 0 0 0 0 0 0 0 0 0 0 0 0 0 0 0 0 0 0 0 0 0 0 0 0 0 0 0 0 0 0 0
2 0 1 0 0 0 0 0 0 0 0 0 0 0 0 0 0 0 0 0 0 0 0 0 0 0 0 0 0 0 0 0 0 0 0 0 0 0 0 0 0 0 0 0
0 0 0 0 0 1 0 0 0 0 0 0 0 0 0 0 0 0 0 0 0 0 0 0 0 0 0 0 0 0 0 0 0 0 0 0 0 0 0 0 0 0 0 0
1 1 1 0 0 0 0 0 0 0 0 0 0 0 0 0 0 0 0 0 0 0 0 0 0 0 0 0 0 0 0 0 0 0 0 0 0 0 0 0 0 0 0 0
0 1 0 0 0 0 0 0 0 0 0 0 0 0 0 0 0 0 0 0 0 0 0 0 0 0 0 0 0 0 0 0 0 0 0 0 0 0 0 0 0 0 0 0
0 0 0 0 0 0 0 0 0 0 0 0 0 0 0 0 0 0 0 0 0 0 0 0 0 0 0 0 0 0 0 0 0 0 0 0 0 0 0 0 0 0 0 0
0 1 0 0 0 0 0 0 0 0 0 0 0 0 0 0 0 0 0 0 0 0 0 0 0 0 0 0 0 0 0 0 0 0 0 0 0 0 0 0 0 0 0 0
0 0 0 0 0 0 0 0 0 0 0 0 0 0 0 0 0 0 0 0 0 0 0 0 0 0 0 0 0 0 0 0 0 0 0 0 0 0 0 0 0 0 0 0
0 0 0 0 0 0 0 0 0 0 0 0 0 0 0 0 0 0 0 0 0 0 0 0 0 0 0 0 0 0 0 0 0 0 0 0 0 0 0 0 0 0 0 0
0 0 0 0 0 0 0 0 0 0 0 0 0 0 0 0 0 0 0 0 0 0 0 0 0 0 0 0 0 0 0 0 0 0 0 0 0 0 0 0 0 0 0 0
0 0 0 0 0 0 0 0 0 0 0 0 0 0 0 0 0 0 0 0 0 0 0 0 0 0 0 0 0 0 0 0 0 0 0 0 0 0 0 0 0 0 0 0
0 0 0 0 0 0 0 0 0 0 0 0 0 0 0 0 0 0 0 0 0 0 0 0 0 0 0 0 0 0 0 0 0 0 0 0 0 0 0 0 0 0 0 0
CIN
0 0 0 0 0 0 0 0 0 0 0 0 0 0 0 0 0 0 0 0 0 0 0 0 0 0 0 0 0 0 0 0 0 0 0 0 0 0 0 0 0 0 0 0
0 0 0 0 0 0 0 0 0 0 0 0 0 0 0 0 0 0 0 0 0 0 0 0 0 0 0 0 0 0 0 0 0 0 0 0 0 0 0 0 0 0 0 0
0 0 0 0 0 0 0 0 0 0 0 0 0 0 0 0 0 0 0 0 0 0 0 0 0 0 0 0 0 0 0 0 0 0 0 0 0 0 0 0 0 0 0 0
0 0 0 0 0 0 0 0 0 0 0 0 0 0 0 0 0 0 0 0 0 0 0 0 0 0 0 0 0 0 0 0 0 0 0 0 0 0 0 0 0 0 0 0
0 0 0 0 0 0 0 0 0 0 0 0 0 0 0 0 0 0 0 0 0 0 0 0 0 0 0 0 0 0 0 0 0 0 0 0 0 0 0 0 0 0 0 0
0 0 0 0 0 0 0 0 0 0 0 0 0 0 0 0 0 0 0 0 0 0 0 0 0 0 0 0 0 0 0 0 0 0 0 0 0 0 0 0 0 0 0 0
0 0 0 0 0 0 0 0 0 0 0 0 0 0 0 0 0 0 0 0 0 0 0 0 0 0 0 0 0 0 0 0 0 0 0 0 0 0 0 0 0 0 0 0
0 0 0 0 0 0 0 0 0 0 0 0 0 0 0 0 0 0 0 0 0 0 0 0 0 0 0 0 0 0 0 0 0 0 0 0 0 0 0 0 0 0 0 0
0 0 0 0 0 0 0 0 0 0 0 0 0 0 0 0 0 0 0 0 0 0 0 0 0 0 0 0 0 0 0 0 0 0 0 0 0 0 0 0 0 0 0 0
0 0 0 0 0 0 0 0 0 0 0 0 0 0 0 0 0 0 0 0 0 0 0 0 0 0 0 0 0 0 0 0 0 0 0 0 0 0 0 0 0 0 0 0
0 0 0 0 0 0 0 0 0 0 0 0 0 0 0 0 0 0 0 0 0 0 0 0 0 0 0 0 0 0 0 0 0 0 0 0 0 0 0 0 0 0 0 0
0 0 0 0 0 0 0 0 0 0 0 0 0 0 0 0 0 0 0 0 0 0 0 0 0 0 0 0 0 0 0 0 0 0 0 0 0 0 0 0 0 0 0 0
0 0 0 0 0 0 0 0 0 0 0 0 0 0 0 0 0 0 0 0 0 0 0 0 0 0 0 0 0 0 0 0 0 0 0 0 0 0 0 0 0 0 0 0
0 0 0 0 0 0 0 0 0 0 0 0 0 0 0 0 0 0 0 0 0 0 0 0 0 0 0 0 0 0 0 0 0 0 0 0 0 0 0 0 0 0 0 0
0 0 0 0 0 0 0 0 0 0 0 0 0 0 0 0 0 0 0 0 0 0 0 0 0 0 0 0 0 0 0 0 0 0 0 0 0 0 0 0 0 0 0 0
-3 0 0 0 0 0 0 0 0 0 0 0 0 0 0 0 0 0 0 0 0 0 0 0 0 0 0 0 0 0 0 0 0 0 0 0 0 0 0 0 0 0 0 0
0 0 0 0 0 0 0 0 0 0 0 0 0 0 0 0 0 0 0 0 0 0 0 0 0 0 0 0 0 0 0 0 0 0 0 0 0 0 0 0 0 0 0 0
0 0 0 0 0 0 0 0 0 0 0 0 0 0 0 0 0 0 0 0 0 0 0 0 0 0 0 0 0 0 0 0 0 0 0 0 0 0 0 0 0 0 0 0
0 0 0 0 0 0 0 0 0 0 0 0 0 0 0 0 0 0 0 0 0 0 0 0 0 0 0 0 0 0 0 0 0 0 0 0 0 0 0 0 0 0 0 0
0 0 0 0 0 0 0 0 0 0 0 0 0 0 0 0 0 0 0 0 0 0 0 0 0 0 0 0 0 0 0 0 0 0 0 0 0 0 0 0 0 0 0 0
0 0 0 0 0 0 0 0 0 0 0 0 0 0 0 0 0 0 0 0 0 0 0 0 0 0 0 0 0 0 0 0 0 0 0 0 0 0 0 0 0 0 0 0
0 0 0 0 0 0 0 0 0 0 0 0 0 0 0 0 0 0 0 0 0 0 0 0 0 0 0 0 0 0 0 0 0 0 0 0 0 0 0 0 0 0 0 0
0 0 0 0 0 0 0 0 0 0 0 0 0 0 0 0 0 0 0 0 0 0 0 0 0 0 0 0 0 0 0 0 0 0 0 0 0 0 0 0 0 0 0 0
0 0 0 0 0 0 0 0 0 0 0 0 0 0 0 0 0 0 0 0 0 0 0 0 0 0 0 0 0 0 0 0 0 0 0 0 0 0 0 0 0 0 0 0
0 0 0 0 0 0 0 0 0 0 0 0 0 0 0 0 0 0 0 0 0 0 0 0 0 0 0 0 0 0 0 0 0 0 0 0 0 0 0 0 0 0 0 0
0 0 0 0 0 0 0 0 0 0 0 0 0 0 0 0 0 0 0 0 0 0 0 0 0 0 0 0 0 0 0 0 0 0 0 0 0 0 0 0 0 0 0 0
Wind_Speed
19 22 21 19 18 21 27 32 30 29 19 22 23 25 23 17 15 17 16 16 16 16 17 16 16 15 12 10 8 7 6 6 5 5 5 6 8 10 12 14 15 16 17 17
24 27 21 22 22 22 23 26 30 32 24 27 30 31 31 22 19 18 19 20 18 16 16 15 14 11 9 7 6 5 5 5 6 6 6 6 7 9 11 14 16 17 17 18
26 27 18 21 25 26 26 25 27 28 30 28 38 49 27 26 23 21 21 21 19 16 14 12 11 7 5 4 3 3 4 5 6 5 6 7 8 9 10 12 14 16 17 18
31 28 32 28 24 21 29 24 25 29 32 35 24 51 31 27 24 20 20 22 19 15 12 10 7 6 4 3 3 3 3 3 4 5 5 4 5 6 9 11 13 16 17 18
29 27 25 24 25 21 28 26 30 28 33 39 37 46 40 23 22 22 21 20 17 13 10 8 7 5 4 3 2 2 3 3 3 4 5 5 5 7 8 10 12 15 17 19
34 27 27 28 24 22 21 26 28 30 33 42 29 29 52 24 20 23 19 16 14 11 9 8 6 5 4 2 2 1 0 1 2 3 3 3 4 5 6 9 11 14 16 19
33 34 31 26 26 23 21 25 34 36 33 40 28 28 30 26 23 19 12 11 10 9 9 8 8 7 6 5 4 3 2 1 1 1 2 3 3 5 6 9 11 13 16 18
29 36 24 24 27 29 26 25 29 37 37 39 30 36 33 29 26 23 10 7 8 10 9 10 9 8 8 7 6 5 4 2 1 0 1 3 4 5 7 9 11 13 15 17
31 36 25 21 23 22 27 28 23 35 36 43 39 40 40 31 27 20 10 8 9 10 10 10 10 9 9 8 7 6 5 4 3 2 2 3 4 6 8 10 12 13 15 17
29 35 27 24 21 24 24 19 25 27 38 43 40 38 33 28 23 17 12 11 10 10 10 11 11 11 10 9 8 7 6 5 5 4 4 4 5 6 8 10 12 14 16 17
27 30 30 25 28 25 26 27 26 26 30 37 44 37 30 25 19 15 14 11 12 12 12 12 12 12 11 10 9 9 8 7 7 6 6 5 6 8 9 11 12 14 15 17
25 29 37 36 29 25 26 28 27 33 36 34 36 38 26 27 20 16 14 12 12 13 13 13 14 14 13 13 12 11 10 10 9 8 8 8 7 9 11 12 14 14 16 17
22 32 39 36 31 29 32 32 32 33 32 38 36 39 28 27 23 19 16 15 14 15 16 16 15 16 16 15 14 13 12 12 11 10 10 10 10 11 12 12 13 14 16 18
21 32 36 40 34 26 31 31 30 30 36 38 37 38 34 29 26 22 20 18 17 16 16 17 18 18 18 17 17 15 15 14 13 12 12 12 12 12 12 13 14 15 16 18
28 42 40 48 47 42 37 38 33 35 39 39 39 38 37 36 33 28 24 20 19 19 20 20 20 19 19 19 18 17 17 16 15 15 15 14 14 13 13 14 15 16 18 19
30 44 40 51 48 45 51 46 43 39 41 42 44 47 35 37 32 29 26 24 24 24 22 20 19 20 21 21 20 19 19 18 16 16 16 15 15 15 16 16 17 18 19 19
37 38 41 52 43 43 50 47 44 46 46 43 48 46 42 41 33 30 28 27 26 24 22 22 22 21 22 22 21 21 19 17 18 18 17 17 17 18 18 18 18 19 19 20
36 39 39 46 40 53 45 36 34 38 42 40 44 44 38 37 37 33 29 28 26 24 23 23 23 23 21 20 20 19 19 19 19 19 19 19 19 20 19 19 21 21 21 23
32 37 42 45 47 47 46 36 34 34 46 35 36 39 37 32 30 32 26 26 26 25 23 25 23 22 19 19 18 17 18 19 19 21 21 20 20 21 21 21 22 22 23 25
32 33 38 36 43 48 36 29 25 24 52 31 31 32 28 24 33 32 23 23 24 25 26 22 18 17 18 17 15 16 18 18 20 21 22 20 19 20 21 21 22 22 24 25
35 37 44 43 44 41 33 28 22 39 44 30 29 27 22 26 30 25 19 20 19 18 17 15 15 15 14 12 13 16 17 20 19 19 18 18 19 20 20 21 22 23 24 25
36 37 38 36 41 46 24 22 31 32 30 31 29 25 24 23 20 19 17 14 14 13 12 11 12 13 13 11 13 15 17 16 15 16 18 18 18 19 20 21 22 23 24 25
41 36 38 37 39 29 25 28 26 26 28 27 25 23 20 19 19 16 15 13 11 9 9 9 10 10 10 10 11 14 16 15 15 16 17 18 18 19 19 21 23 24 24 25
34 30 37 35 34 33 28 27 24 24 25 25 25 23 21 21 18 17 13 11 9 8 8 9 9 11 13 13 15 17 15 15 16 17 18 18 19 21 22 22 22 24 25 27
32 27 33 36 33 31 30 29 26 26 26 26 24 22 19 16 15 13 11 9 8 9 11 12 13 15 16 16 16 16 16 15 17 18 19 21 22 23 24 24 24 26 27 27
30 33 35 38 28 29 29 26 22 25 26 24 23 21 18 15 12 9 9 10 12 13 14 15 17 18 17 16 17 18 18 18 19 22 22 23 24 24 25 26 28 27 27 28
Wind_Direction
297 294 291 294 292 296 301 300 303 304 315 307 301 300 301 294 293 293 291 293 293 294 304 312 316 321 328 339 346 350 10 15 23 20 14 1 351 3 4 5 7 9 13 17
296 287 291 296 297 296 296 299 298 300 305 303 302 298 298 293 280 275 283 288 287 290 298 304 308 317 323 336 350 15 41 34 1 0 360 3 15 16 18 19 20 21 19 17
283 297 299 290 291 293 292 294 299 300 304 302 301 291 291 290 280 283 285 288 283 278 285 292 295 298 313 327 351 2 11 12 21 35 40 45 44 22 22 20 22 19 21 20
285 284 287 289 285 290 293 296 296 299 300 298 306 291 301 305 299 278 281 284 281 279 278 276 272 271 280 304 330 347 17 30 47 64 68 31 20 35 25 27 27 22 20 16
286 289 285 278 285 286 293 303 300 297 295 296 293 294 302 300 289 282 274 273 273 269 261 250 251 254 263 267 290 321 339 357 34 72 77 66 59 44 37 28 18 10 9 8
278 292 288 286 289 288 297 302 301 298 295 290 292 291 292 298 296 304 284 270 262 253 244 245 247 239 236 239 237 267 238 67 77 82 66 64 53 39 18 6 3 0 359 358
280 275 283 286 286 292 288 295 294 292 287 289 304 292 277 310 317 316 288 265 245 227 228 226 224 219 213 199 184 168 155 148 73 34 37 37 25 13 7 359 355 352 351 351
282 285 266 272 271 282 276 277 284 289 290 295 301 293 301 306 305 306 286 254 232 220 216 215 211 210 199 193 186 186 183 195 212 30 347 0 4 352 349 348 346 347 347 348
282 283 288 281 282 272 287 272 277 289 295 294 292 294 295 295 302 307 280 248 228 216 216 209 205 205 202 202 207 202 200 212 227 257 295 317 330 334 338 341 342 343 344 344
285 284 290 287 290 284 283 292 284 280 290 291 294 293 288 300 292 287 269 243 231 228 227 212 209 208 208 213 220 215 218 226 241 264 283 301 317 327 332 333 334 335 337 339
276 280 285 286 279 274 276 276 284 286 285 291 293 294 304 294 288 266 265 248 232 226 227 218 220 221 219 219 220 225 231 238 248 259 272 285 302 313 321 325 327 330 333 334
270 285 278 279 284 276 270 276 265 282 290 282 284 282 307 306 301 280 267 257 247 240 238 234 230 228 225 226 228 229 234 240 246 253 262 274 287 300 310 317 321 324 326 329
272 279 280 283 283 283 276 273 269 270 285 276 280 285 302 297 296 288 276 265 253 251 248 245 235 231 229 231 236 239 241 244 248 253 260 270 281 293 302 309 313 317 320 324
274 276 271 271 285 289 283 274 269 265 270 270 268 274 288 296 294 289 282 269 260 252 246 244 243 236 235 238 241 241 243 244 246 251 259 267 278 286 294 301 305 310 314 318
269 275 273 274 276 281 286 284 273 259 257 272 270 275 278 282 282 281 281 272 266 261 256 251 246 244 241 241 244 245 245 245 245 251 259 268 277 284 290 294 299 305 310 314
272 277 276 277 278 279 277 277 273 265 266 267 272 279 288 288 283 277 274 271 268 267 260 250 249 252 251 245 245 248 247 246 246 253 261 269 274 278 285 290 295 301 305 311
269 272 275 277 282 282 279 269 271 270 269 272 272 265 285 284 282 277 275 272 269 266 258 255 255 258 256 250 250 248 248 245 247 257 265 269 272 277 281 284 290 296 300 306
269 268 275 278 281 275 282 290 277 272 274 270 273 278 285 284 280 276 268 269 269 267 267 266 268 270 260 257 256 252 248 248 253 260 266 269 272 278 280 285 289 293 298 302
268 269 274 274 274 281 284 286 286 283 282 280 276 281 282 285 286 280 277 276 273 269 272 278 272 268 259 260 258 253 251 253 256 265 269 270 274 277 280 283 286 292 297 302
268 271 267 274 275 276 286 293 299 296 284 293 285 283 281 280 278 280 275 278 277 280 282 277 269 265 263 261 254 256 257 259 264 269 273 275 273 277 279 282 285 292 297 300
268 269 265 268 274 280 286 292 295 286 292 300 299 294 283 277 284 292 285 284 283 281 281 278 271 268 268 264 260 265 266 267 274 278 280 280 278 279 282 286 291 292 296 300
269 269 270 272 274 277 289 289 284 298 304 301 303 301 294 295 296 299 294 285 284 282 281 279 276 278 280 276 274 275 276 283 284 285 286 285 285 287 288 289 294 296 297 298
272 270 274 273 279 289 287 290 294 304 302 306 308 308 302 298 300 298 294 291 288 285 285 287 286 289 291 285 285 287 291 293 293 292 291 291 293 294 294 294 296 298 298 299
276 279 277 279 282 285 285 293 296 301 302 305 306 305 301 298 299 297 295 292 290 291 290 296 295 297 297 297 297 299 298 297 296 295 296 297 297 299 300 300 299 299 299 300
279 279 279 281 286 291 285 288 291 295 299 303 308 309 306 303 301 300 294 289 289 291 295 297 297 299 300 301 301 303 302 300 299 300 300 301 301 301 301 301 301 301 303 303
280 280 279 282 287 288 291 289 291 291 293 300 303 305 308 305 300 297 291 290 290 290 295 296 299 302 304 304 304 305 306 303 301 300 301 302 304 304 305 304 305 306 307 308